Location: Arrodets-la-Barthe
(43.0306°N, 0.2829°E)
Time: 19:11:48
(UTC+00:00)

Cosmos 332 Rocket - Pass Details

Date: 24 October 2021
Orbit: 682 x 703 km, 74.0° (Epoch: 02 December)

Event Time Altitude Azimuth Distance (km) Brightness Sun altitude
Rises 17:38:02 0° 176° (S) 3,072 7.2 -7.3°
Reaches altitude 10° 17:40:29 10° 168° (SSE) 2,157 6.3 -7.7°
Maximum altitude 17:44:55 36° 102° (ESE) 1,099 4.4 -8.5°
Drops below altitude 10° 17:49:22 10° 37° (NE) 2,162 5.9 -9.3°
Sets 17:51:49 0° 29° (NNE) 3,081 6.8 -9.8°
